Regional Weather Roundup
Issued by NWS Wakefield, VA

Home | Current Version | Previous Version | Text Only | Print | Product List | Glossary Off
Versions: 1 2 3 4 5 6 7 8 9 10 11 12 13 14 15 16 17 18 19 20 21 22 23 24 25 26 27 28 29 30 31 32 33 34 35 36 37 38 39 40 41 42 43 44 45 46 47 48 49 50

479
ASUS41 KAKQ 132215
RWRAKQ

REGIONAL WEATHER ROUNDUP
NATIONAL WEATHER SERVICE WAKEFIELD VA
500 PM EST SAT FEB 13 2016

Note: "fair" indicates few or no clouds below 12,000 feet with no
significant weather and/or obstructions to visibility. * = Denotes
station may not report precipitation (e.g., rain,snow,etc.),
thunder or fog.

VAZ042-051-052>054-056-132300-
NORTHERN VIRGINIA

CITY           SKY/WX    TMP DP  RH WIND       PRES   REMARKS
WASH NATIONAL  FAIR      20  -7  30 NW22G32   30.34R WCI   3
DULLES         MOCLDY    18  -8  31 NW22G30   30.34R WCI   1
FORT BELVOIR   FAIR      21  -8  27 NW13G28   30.35R WCI   9
QUANTICO       FAIR      23  -7  26 N18G26    30.37R WCI   9
FREDERICKSBRG* FAIR      23  -4  30 W17G26    30.35R WCI   9
STAFFORD*      FAIR      22  -8  26 NW17G23   30.39R WCI   7
WARRENTON      FAIR      22  -1  36 NW16      30.34R WCI   8
CULPEPER*      FAIR      20  -8  29 NW12G18   30.36R WCI   8
MANASSAS*      PTCLDY    19  -2  38 NW23G31   30.35R WCI   2
LEESBURG*      FAIR      19   0  42 NW14G29   30.35R WCI   6
WINCHESTER     CLOUDY    19  -6  32 W21G29    30.32R WCI   3
FRONT ROYAL*   FAIR      18  -6  35 NW8       30.32R
LURAY*         FAIR      18  -6  35 NW12G20   30.32R WCI   5
$$

VAZ048-049-060>072-079>083-132300-
CENTRAL AND SOUTH CENTRAL VIRGINIA

CITY           SKY/WX    TMP DP  RH WIND       PRES   REMARKS
RICHMOND       FAIR      27  -7  22 NW20G26   30.30R WCI  13
CHESTERFIELD*  FAIR      28  -8  20 NW14G20   30.31R WCI  17
PETERSBURG*    FAIR      31 -18  11 W10G18    30.30R WCI  22
HANOVER        FAIR      26  -8  22 NW16G25   30.33R WCI  14
TAPPAHANNOCK*  FAIR      26  -7  23 NE12G21   30.32R WCI  16
QUINTON*       FAIR      28  -8  21 NW14G23   30.29R WCI  16
CHARLOTTSVILLE FAIR      23  -8  25 NW10G18   30.31R WCI  12
GORDONSVILLE*  FAIR      23  -8  25 NW3G20    30.33R
ORANGE*        FAIR      23  -6  28 NW12G17   30.35R WCI  12
LOUISA*        FAIR      25  -8  24 NW14G22   30.30R WCI  13
BUMPASS*       FAIR      25  -6  25 W7        30.31R
FARMVILLE*     FAIR      28 -10  18 W6        30.30R
CREWE*         FAIR      28  -6  23 NW12G20   30.30R WCI  17
FORT PICKETT*  FAIR      28  -9  19 NW16G23   30.29R WCI  16
CHASE CITY*    FAIR      27  -9  20 W7G22     30.32R
CLARKSVILLE*   FAIR      30  -4  22 NW12G21   30.32R WCI  21
SOUTH HILL*    FAIR      28  -3  26 W10G16    30.36R WCI  19
LAWRENCEVILLE* FAIR      29  -4  23 NW8G20    30.29R
EMPORIA*       FAIR      30  -6  21 NW9G21    30.32R
$$

VAZ088>098-132300-
SOUTHEAST VIRGINIA

CITY           SKY/WX    TMP DP  RH WIND       PRES   REMARKS
NORFOLK        FAIR      30  -5  21 NW10G23   30.26R WCI  21
VIRGINIA BEACH FAIR      32  -1  24 NW15G29   30.26R WCI  22
NORFOLK NAVAL  FAIR      30  -1  26 NW18G29   30.28R WCI  18
WEST POINT*    FAIR      28  -5  23 NW13      30.31R WCI  17
SALUDA*        FAIR      26   1  33 NW17G25   30.28R WCI  13
NEWPORT NEWS   FAIR      29  -3  25 NW21      30.28R WCI  16
LANGLEY AFB    FAIR      29  -4  23 NW16G23   30.26R WCI  17
FORT EUSTIS    FAIR      30   0  28 NW18G26   30.26R WCI  17
WILLIAMSBURG*  FAIR      34   0  23 NW14G25   30.29R WCI  24
HR EXEC AP*    FAIR      30  -2  24 NW7       30.29R
FRANKLIN*      FAIR      31  -4  22 NW13      30.29R WCI  21
US460-WAKEFLD  FAIR      31  -5  21 N9        30.28R
$$

VAZ020-022-025-037-045-132300-
WEST CENTRAL AND SOUTHWEST VIRGINIA

CITY           SKY/WX    TMP DP  RH WIND       PRES   REMARKS
STAUNTON*      FAIR      24  -8  24 NW15      30.30R WCI  11
WAYNESBORO*    FAIR      19 -15  21 NW13G21   30.25R WCI   6
HOT SPRINGS VA FAIR       9  -8  47 W17G28    30.04R WCI -10
LYNCHBURG      FAIR      23  -8  25 W10G17    30.31R WCI  12
DANVILLE       FAIR      29  -4  24 NW13G20   30.33R WCI  19
SOUTH BOSTON*  FAIR      28  -6  22 NW13G21   30.33R WCI  18
MARTINSVILLE   FAIR      24  -4  28 NW15G21   30.35R WCI  12
ROANOKE        FAIR      21  -5  31 NW14G29   30.34R WCI   8
BLACKSBURG     FAIR      18  -1  43 NW13G21   30.29R WCI   5
DUBLIN*        FAIR      19   0  42 NW12G21   30.29R WCI   7
MARION*        FAIR      18  -1  43 NW15G23   30.27R WCI   3
HILLSVILLE*    FAIR      17  -2  42 NW20      30.19R WCI   0
RICHLANDS*     FAIR      15  -2  46 NW8G17    30.27S
WISE*          FAIR      19  -6  32 NW6       30.29S
ABINGDON*      FAIR      23  -2  34 NW10      30.32R WCI  12
$$

MDZ021>025-VAZ099-100-132300-
SOUTHERN MARYLAND AND THE DELMARVA PENINSULA

CITY           SKY/WX    TMP DP  RH WIND       PRES   REMARKS
PATUXENT RIVER PTCLDY    22  -6  29 NW16G25   30.31R WCI   8
BAY BRIDGE APT   N/A     21  -2  35 NW21G28   30.31R WCI   6
LEONARDTOWN    CLEAR     23  -8  25 NW10G18   30.32R WCI  12
DOVER          MOCLDY    19  -1  41 NW22G30   30.26R WCI   2
GEORGETOWN     FLURRIES  21  -4  33 NW10G28   30.27R WCI  10
EASTON         NOT AVBL
CAMBRIDGE      PTCLDY    21  -2  35 NW15G23   30.29R WCI   8
SALISBURY      PTCLDY    21  -3  35 NW21G33   30.27R WCI   5
OCEAN CITY     MOCLDY    21  -3  35 NW17G32   30.26R WCI   7
WALLOPS ISLAND MOCLDY    23  -2  33 NW16G28   30.28R WCI  10
ACCOMACK*      FAIR      27   0  31 NW18G32   30.28R WCI  13
$$

NCZ012>017-030>032-132300-
NORTH CENTRAL AND EASTERN NORTH CAROLINA

CITY           SKY/WX    TMP DP  RH WIND       PRES   REMARKS
ROANOKE RAPIDS FAIR      32  -2  23 NW12G21   30.31R WCI  23
RALEIGH        PTCLDY    33  -2  22 NW8       30.31R
ELIZABETH CITY CLEAR     31   5  33 NW12      30.27R WCI  22
AHOSKIE*       CLEAR     30  -3  24 NW5       30.30R
EDENTON*       CLEAR     33   0  24 NW13G21   30.28R WCI  24
CURRITUCK*     CLEAR     32   2  28 NW9       30.27R
KILL DEVIL HLS CLEAR     32   2  28 NW10G20   30.25R WCI  23
MANTEO         CLEAR     31   5  33 N14G21    30.26R WCI  21
CAPE HATTERAS  CLEAR     34   7  32 NW13G23   30.25R WCI  25
TARBORO*       FAIR      33   1  25 W13       30.32R WCI  24
GOLDSBORO      CLEAR     34   0  23 W13       30.29R WCI  25
WASHINGTON     CLEAR     32   1  26 NW10G20   30.30R WCI  24
GREENVILLE     CLEAR     32   0  25 NW9G17    30.31R
NEW BERN       CLEAR     34   4  28 NW17      30.30R WCI  23
WILMINGTON     CLEAR     40   9  28 N15G21    30.29R
$$

VAZ048-132300-
ELSEWHERE

CITY           SKY/WX    TMP DP  RH WIND       PRES   REMARKS
HARRISBURG PA  MOCLDY    15  -5  40 NW20      30.28R WCI  -2
BALTIMORE      MOCLDY    17  -6  35 NW18G32   30.31R WCI   1
ANNAPOLIS      CLOUDY    21   1  41 NW14      30.32R WCI   8
ANDREWS AFB    FAIR      19  -5  34 NW16G28   30.30R WCI   5
PHILADELPHIA   MOCLDY    17 -12  27 NW18G30   30.27R WCI   1
HENDERSON NC   CLEAR     30  -6  20 NW12G17   30.31R WCI  20
GREENSBORO     SUNNY     30  -4  23 NW14G22   30.30R WCI  19
ROCKY MOUNT    CLEAR     32   0  25 NW14G24   30.31R WCI  22
$$

VAZ100-132300-
MARINE

STATION/POSITION TIME  TEMP    WIND        PRES    WAVE   SWELL
                       AIR SEA DIR/SP/G            HT/PER HT/PER
                 (UTC) (F)     (DEG/KT/KT) (MB)    (FT/S) (FT/S)
BRANDYWINE LGT   2100   19     330/ 24/ 39 1023.1R
CAPE MAY NJ      2100   20 34  320/ 24/ 39 1023.0R
LEWES DE         2100   22 37  310/ 29/ 36 1023.4R
15NM E FENWICK I 2150   23 43              1023.5R   7/ 6
OCEAN-CITY-INLET 2100   23 40  340/ 18/ 25 1023.0R
WACHAPREAGUE VA  2100   26 36  310/  5/ 15 1024.3R
THOMAS POINT MD  2200          320/ 22       N/A
GOOSES REEF MD   2200   22 37  310/ 21/ 29 1027.2R   3/ 4
COVE POINT MD    2100   20     340/ 19/ 28 1026.2R
SOLOMONS ISLAND  2100   23 38  320/ 11/ 19   N/A
BISHOPS HEAD MD  2100   23 32  310/ 22/ 27 1024.6R
PINEY POINT MD   2100          340/ 25/ 31   N/A
POTOMAC MD       2200   25 38  340/ 19/ 25 1025.1R   3/ 4
CAMBRIDGE MD     2100   21 35  300/ 16/ 24 1024.6R
LEWISETTA VA     2100   24 36  340/ 18/ 22 1025.2R
RAPPAHANNOCK LGT 2100          330/ 23/ 25 1024.3R
STINGRAY PT      2200   27 38  330/ 19/ 25 1025.0R   2/ 3
YORK RVR RNG VA  2100   29     320/ 21/ 25 1023.6R
YORKTOWN VA      2100   29 40  290/ 16/ 23 1024.2R
JAMESTOWN VA     2200   29 40  320/ 19/ 27   N/A     1/ 3
DOMINION TERM VA 2100   30     330/ 21/ 29 1024.0R
KIPTOPEKE VA     2100      38  320/ 21/ 25   N/A
CHES BAY BRIDGE  2100   29 40  290/ 20/ 23 1023.9R
CAPE HENRY VA    2100   29     280/ 14/ 22   N/A
CHESAPEAKE LGHT  2100   29     310/ 21/ 25 1024.6R
WILLOUBY STN VA  2100   29     310/ 19/ 22 1025.2R
CAPE HENRY BUOY  2128      43                N/A     5/ 4
1ST LANDING BUOY 2200      40                N/A     3/ 3
CAPE CHARLES BUO 2126      42                N/A     4/ 4   2/11
OFFSHORE WE BUOY 2121      45                N/A     6/ 5   2/11
64NM E OF VA BCH 2150   31 48  320/ 23/ 33 1023.1R   9/ 7
DUCK PIER NC     2100   31     310/ 21/ 25 1023.0R
44100 DUCK FRF   2124      46                N/A     5/ 6
44056 DUCK FRF   2111      42                N/A     4/ 7
OREGON INLET NC  2100   31 40  300/ 15/ 23 1023.8R
HATTERAS NC      2100   33 43  320/ 18/ 23 1023.4R
DIAMOND SHLS NC  2150   35 72  320/ 16/ 21 1024.4R   5/ 8   3/ 8
$$




USA.gov is the U.S. government's official web portal to all federal, state and local government web resources and services.